{"data":{"norad_id":65080,"intl_designator":"2025-167C","name":"STARLINK-34267","alt_names":[],"object_type":"PAYLOAD","status":"ACTIVE","operator":null,"country":"US","launch_date":"2025-08-04","launch_site_code":"AFETR","launch_vehicle":null,"mission":null,"orbit_class":"UNKNOWN","rcs_meters":null,"size_class":null,"mass_kg":null,"dimensions":null,"purposes":["comms"],"wikipedia_slug":null,"has_3d_model":false,"image_url":null,"decayed_at":null,"tle_current":{"epoch":"2026-05-25T01:28:21.633600Z","epoch_age_seconds":62917,"freshness":"FRESH","line1":"1 65080U 25167C   26145.06136150  .00023090  00000+0  69252-3 0  9990","line2":"2 65080  53.1614  29.0654 0001221  84.9721 275.1421 15.34395604 46433","mean_motion":15.34395604,"eccentricity":0.0001221,"inclination_deg":53.1614,"raan_deg":29.0654,"arg_perigee_deg":84.9721,"mean_anomaly_deg":275.1421,"bstar":0.00069252,"rev_number":4643,"period_min":93.848026952507,"perigee_km":461.88103788804,"apogee_km":463.55157426539,"semimajor_km":6840.8533060767,"source":"CELESTRAK","updated_at":"2026-05-25T13:38:20.682570Z"}}}